Wind_Speed
12 12 11 11 10 10 10 10 10 9 9 8 7 6 5 5 5 4 4 5 5 5 5 4 4 4 4 4 4 3 3 3 2 3 5 6 7 8 7 8 9 9 9
12 13 13 12 11 11 11 11 11 10 9 8 7 6 5 4 4 4 4 4 4 4 4 3 3 3 3 3 3 3 3 2 2 3 5 6 8 8 8 8 9 9 9
13 14 14 13 12 12 12 12 11 11 9 8 7 6 4 3 3 3 3 3 3 3 3 2 2 2 2 2 2 2 2 2 3 3 5 7 7 8 8 8 9 9 9
13 14 14 14 13 13 13 13 12 11 9 8 7 6 4 3 2 2 2 2 2 2 2 2 1 1 1 1 1 2 2 2 3 4 5 6 7 7 8 8 9 8 9
13 15 15 15 14 14 14 14 13 11 10 8 7 5 4 3 2 1 1 1 1 1 1 1 1 0 0 1 1 2 2 3 4 4 5 6 6 6 7 8 9 9 8
13 15 16 16 15 14 14 14 13 12 10 8 7 5 4 2 2 1 1 1 1 1 1 1 1 0 0 1 1 2 3 3 4 4 5 6 6 6 7 7 8 8 8
13 15 16 16 16 15 15 14 14 13 11 9 8 6 4 3 2 1 0 1 1 2 2 1 1 0 1 1 2 3 3 4 4 5 5 6 6 7 7 8 8 8 8
13 16 17 16 16 17 16 15 14 13 11 10 8 6 4 2 1 0 0 1 1 2 2 1 1 1 1 2 2 3 4 4 5 5 6 6 7 7 8 9 9 9 8
13 16 17 17 17 17 17 16 15 14 12 11 9 6 4 2 1 1 1 2 2 2 2 1 1 1 2 2 2 3 3 4 5 6 7 8 8 8 9 9 10 9 9
14 16 18 19 18 18 18 17 15 14 13 11 8 6 4 3 2 1 1 2 2 2 2 2 2 2 2 3 3 3 4 5 6 7 8 8 8 9 10 10 10 10 10
14 17 18 19 19 19 19 18 16 15 13 11 8 6 5 3 2 2 2 2 2 2 2 2 3 2 3 3 4 4 4 5 6 7 8 9 9 10 10 11 11 11 10
15 17 19 19 20 19 19 19 18 16 14 11 9 6 5 3 3 2 2 2 2 2 3 3 4 3 4 4 4 5 5 5 6 7 8 9 10 11 11 12 12 12 11
14 18 20 21 21 21 20 20 19 17 15 12 10 7 5 4 4 3 2 1 2 2 3 3 4 4 4 4 4 5 5 6 7 7 8 9 10 10 11 12 12 12 12
14 18 21 22 22 22 22 21 19 18 15 13 10 8 6 5 4 3 2 2 2 2 2 3 3 4 4 5 5 5 5 6 7 7 8 8 9 10 11 12 12 12 12
15 18 21 23 22 23 23 22 20 18 16 14 11 9 6 5 4 4 3 2 2 2 2 2 3 4 4 4 4 4 5 5 7 7 8 8 9 9 9 11 11 12 13
15 18 21 23 24 24 24 23 21 19 16 15 12 9 7 6 5 4 3 2 2 2 2 2 3 3 3 3 3 4 4 5 5 6 7 7 7 8 8 9 10 11 12
14 17 21 24 25 25 25 25 23 20 18 15 13 11 8 7 6 5 4 3 2 2 2 2 2 3 2 2 2 3 3 5 5 6 6 6 7 6 7 8 8 9 11
14 17 21 25 25 26 26 26 24 22 19 16 14 12 9 8 6 5 4 3 3 2 2 2 2 2 2 2 2 2 3 4 5 6 6 6 7 7 6 7 7 8 9
13 16 20 25 25 26 27 26 25 22 19 17 15 12 10 8 7 5 4 4 3 3 3 2 2 2 1 1 1 1 1 2 3 5 5 6 6 6 6 6 6 7 8
12 15 19 23 25 25 26 26 24 22 20 18 16 14 11 9 8 6 5 4 3 3 3 3 3 2 2 1 1 1 1 1 1 2 3 4 5 5 4 4 5 6 8
10 13 19 21 24 25 25 25 23 21 20 18 16 14 12 11 9 7 5 4 4 4 3 3 3 3 3 2 2 2 2 1 1 1 2 3 3 3 4 4 5 6 7
9 13 16 20 23 25 25 24 23 20 19 18 16 15 13 12 10 8 7 6 5 5 4 4 4 4 3 3 3 2 1 1 1 1 1 2 2 3 4 5 5 6 7
8 12 16 19 21 23 23 23 22 20 19 18 17 15 14 12 10 9 8 8 7 6 6 5 5 5 4 4 4 3 2 1 2 2 2 3 4 4 5 6 6 7 7
7 11 14 17 20 22 23 22 21 20 20 18 17 16 15 13 11 11 10 9 8 8 7 7 6 6 5 5 4 4 4 4 4 3 4 4 4 5 6 7 7 8 8
6 10 13 15 18 20 21 21 21 20 20 18 17 17 16 14 12 12 11 11 10 10 9 9 8 8 7 6 6 6 6 6 6 6 6 6 7 7 8 8 9 10 10
4 8 11 13 16 18 18 19 19 20 19 19 18 17 16 14 13 13 13 12 12 11 11 11 10 10 10 9 9 9 9 9 9 9 10 10 10 10 11 11 12 12 13
Wind_Direction
185 182 183 186 189 191 193 192 187 180 170 161 151 137 122 108 95 84 75 69 62 54 49 51 58 62 66 68 65 60 51 52 87 107 122 131 135 138 135 135 134 128 125
194 191 190 192 194 198 201 201 196 189 179 169 159 146 132 117 100 84 73 67 62 56 51 53 61 66 72 75 73 69 62 61 96 119 134 138 139 140 139 136 140 135 132
200 199 198 196 198 201 205 205 201 195 186 177 166 155 142 127 108 88 71 61 61 58 54 57 65 69 74 83 86 84 73 79 116 126 139 143 145 148 146 142 145 144 141
207 206 205 200 200 205 208 208 206 201 193 185 175 166 157 138 114 89 69 62 57 54 51 55 62 77 80 88 104 111 101 110 121 132 144 148 153 154 151 151 151 150 148
212 209 208 205 204 206 210 211 210 207 199 190 181 176 169 155 132 98 74 60 47 40 33 30 27 67 88 103 129 146 137 134 144 150 152 151 154 160 161 162 158 154 153
218 213 210 208 207 207 210 212 212 208 202 194 188 183 178 174 165 142 94 30 7 3 6 8 351 266 188 178 168 163 160 154 157 163 162 162 164 168 169 171 165 160 158
223 216 212 211 210 208 210 214 213 210 205 200 195 190 187 187 176 159 77 6 351 342 337 330 311 267 221 198 181 178 181 171 169 171 174 173 175 179 180 179 174 167 168
224 217 214 213 211 209 211 212 211 210 208 204 200 194 193 195 197 211 338 357 340 327 317 307 289 256 229 212 189 186 194 192 189 187 189 188 186 187 187 189 182 176 176
227 218 211 212 210 209 209 210 210 210 208 206 203 200 201 210 228 268 315 323 313 307 300 296 281 252 226 218 210 212 212 204 203 200 200 201 198 196 191 192 188 186 185
229 218 212 210 210 210 209 209 210 211 209 207 206 208 213 223 242 280 308 302 293 289 292 288 271 258 236 222 223 227 223 212 210 210 210 208 207 203 198 196 195 194 193
228 218 213 211 213 213 210 208 209 210 211 209 209 214 223 232 249 284 295 291 287 283 282 274 266 264 258 238 231 235 232 225 221 218 216 215 213 208 205 202 199 199 201
230 219 213 210 209 210 209 209 210 211 211 211 213 218 226 236 251 274 289 294 271 272 266 263 264 268 265 251 239 239 236 230 223 219 217 218 216 214 212 211 206 203 204
233 220 212 210 210 210 210 211 214 214 212 213 214 218 227 242 249 262 273 282 269 277 277 269 260 263 264 261 249 240 235 230 226 222 220 220 220 221 220 218 213 209 209
235 221 215 211 210 213 214 214 216 216 214 214 217 221 230 241 242 245 257 277 271 276 281 276 272 269 267 267 253 243 238 232 227 226 225 225 226 230 230 223 218 216 216
238 224 214 209 212 215 217 217 217 219 218 218 219 224 231 236 240 244 250 264 260 257 263 272 276 274 269 264 257 249 239 230 226 229 234 232 231 232 230 226 224 222 220
239 227 217 212 213 216 217 217 219 220 220 222 223 227 233 238 243 244 241 256 255 251 251 257 267 271 270 259 253 248 238 229 224 237 240 234 231 230 230 231 224 224 225
236 222 217 214 216 216 217 218 219 220 221 223 225 228 233 236 236 236 236 243 234 240 245 246 257 263 263 260 257 253 245 238 236 241 238 233 229 231 233 228 224 227 230
233 224 218 215 217 216 217 218 219 220 223 226 227 230 233 232 226 222 228 230 227 230 228 234 250 255 254 252 257 255 242 235 234 235 231 229 228 230 228 228 229 232 235
234 225 220 218 217 216 215 216 218 222 225 227 227 228 230 227 223 219 221 220 217 214 211 219 231 232 231 231 240 265 236 221 226 229 224 220 222 223 225 230 232 234 240
238 227 220 216 215 213 213 214 217 221 225 226 226 225 224 222 221 219 219 218 216 213 207 209 215 210 200 184 169 146 122 149 205 208 208 215 217 223 231 235 236 239 244
245 224 215 214 213 211 212 213 216 219 222 222 221 220 220 220 219 217 218 221 220 213 204 201 201 192 182 172 160 142 119 108 114 171 199 214 225 236 242 251 255 253 251
243 224 215 211 211 212 212 212 214 217 219 218 218 217 218 220 218 221 222 223 218 211 202 193 193 186 181 180 181 176 158 156 169 190 207 227 247 258 262 264 268 267 266
236 221 213 209 210 211 212 211 214 216 216 216 217 215 216 218 219 223 222 219 217 213 206 200 199 192 191 193 199 207 210 220 239 242 252 267 277 282 282 280 279 273 268
228 213 209 211 212 211 211 213 215 216 214 216 217 216 217 217 219 222 222 220 220 218 215 212 213 209 209 209 212 221 231 240 247 252 257 267 277 283 283 284 284 282 279
226 210 206 208 205 206 207 209 210 211 212 216 218 216 217 218 222 224 224 222 223 223 222 221 221 224 226 229 232 237 244 248 251 255 259 267 275 279 282 282 282 282 283
216 204 204 202 202 202 204 204 206 208 212 217 218 216 218 220 223 225 226 226 227 227 228 228 228 232 238 243 246 249 252 254 256 259 262 265 270 274 277 278 279 281 281
Height
5889 5890 5891 5892 5893 5894 5895 5896 5896 5897 5897 5897 5897 5898 5898 5898 5899 5899 5899 5899 5899 5899 5898 5898 5898 5898 5898 5897 5897 5896 5896 5895 5894 5894 5894 5894 5894 5895 5895 5896 5896 5897 5897
5888 5889 5890 5891 5892 5893 5894 5895 5896 5896 5896 5897 5897 5897 5898 5898 5898 5899 5899 5898 5898 5898 5898 5898 5898 5898 5897 5897 5897 5896 5896 5895 5895 5894 5894 5894 5895 5895 5896 5896 5897 5897 5898
5886 5887 5888 5890 5891 5892 5894 5894 5895 5895 5896 5896 5896 5897 5897 5898 5898 5898 5898 5898 5898 5898 5898 5898 5898 5897 5897 5897 5896 5896 5896 5895 5895 5894 5894 5894 5895 5896 5896 5897 5898 5898 5899
5884 5885 5887 5888 5890 5891 5893 5893 5894 5895 5895 5896 5896 5896 5897 5897 5898 5898 5898 5898 5898 5898 5897 5897 5897 5897 5897 5896 5896 5896 5896 5895 5895 5895 5895 5895 5895 5896 5897 5897 5898 5899 5900
5882 5883 5885 5887 5888 5890 5891 5892 5893 5894 5894 5895 5895 5896 5897 5897 5897 5897 5898 5898 5897 5897 5897 5896 5896 5896 5896 5895 5895 5895 5895 5895 5895 5895 5895 5895 5896 5896 5897 5898 5899 5900 5901
5880 5881 5883 5885 5886 5888 5890 5891 5892 5893 5894 5894 5895 5895 5896 5897 5897 5897 5897 5897 5897 5896 5896 5896 5895 5895 5895 5895 5895 5895 5895 5895 5895 5895 5895 5896 5896 5897 5897 5898 5899 5900 5901
5878 5879 5881 5882 5884 5886 5888 5890 5891 5892 5893 5894 5894 5895 5896 5896 5896 5896 5896 5896 5896 5895 5895 5895 5894 5894 5894 5894 5894 5894 5894 5894 5894 5895 5895 5896 5896 5897 5898 5899 5899 5900 5901
5875 5877 5878 5880 5882 5884 5886 5888 5890 5891 5892 5893 5894 5894 5895 5896 5896 5896 5896 5895 5895 5895 5894 5894 5894 5893 5893 5893 5893 5893 5893 5894 5894 5894 5895 5895 5896 5897 5897 5898 5899 5901 5902
5873 5874 5876 5878 5880 5882 5884 5886 5888 5890 5891 5892 5893 5894 5894 5895 5895 5895 5895 5895 5894 5894 5893 5893 5893 5893 5893 5893 5893 5893 5893 5893 5893 5893 5894 5895 5895 5896 5897 5898 5899 5900 5902
5870 5871 5873 5875 5878 5880 5882 5884 5887 5888 5889 5891 5892 5892 5893 5894 5894 5894 5894 5894 5893 5893 5892 5892 5892 5892 5892 5892 5892 5892 5892 5892 5892 5893 5893 5894 5895 5895 5896 5897 5898 5900 5901
5867 5868 5870 5873 5875 5878 5880 5882 5884 5886 5888 5889 5890 5891 5892 5893 5893 5893 5893 5892 5892 5892 5891 5891 5891 5891 5891 5891 5891 5891 5891 5891 5891 5892 5892 5893 5894 5895 5895 5896 5897 5899 5900
5864 5865 5868 5870 5873 5875 5878 5880 5882 5884 5886 5888 5889 5890 5891 5891 5892 5892 5892 5891 5891 5891 5890 5890 5890 5889 5889 5890 5890 5890 5890 5890 5890 5891 5891 5892 5893 5894 5894 5895 5896 5898 5899
5861 5863 5865 5868 5871 5873 5876 5878 5880 5882 5884 5886 5887 5889 5890 5890 5890 5891 5891 5890 5890 5889 5889 5889 5889 5888 5888 5888 5888 5888 5889 5889 5889 5890 5890 5891 5892 5892 5893 5894 5895 5896 5897
5858 5860 5862 5865 5868 5871 5873 5876 5879 5881 5883 5884 5886 5887 5888 5889 5889 5889 5889 5889 5889 5888 5888 5888 5887 5887 5887 5887 5887 5887 5888 5888 5888 5889 5889 5890 5891 5891 5892 5893 5894 5895 5896
5855 5857 5860 5863 5866 5869 5872 5874 5877 5879 5881 5883 5884 5886 5887 5887 5888 5888 5888 5888 5888 5888 5887 5887 5887 5887 5887 5886 5886 5886 5887 5887 5887 5888 5888 5888 5889 5890 5890 5891 5892 5893 5894
5852 5853 5857 5860 5863 5866 5869 5872 5875 5877 5879 5881 5883 5884 5885 5886 5886 5887 5887 5887 5887 5887 5887 5887 5886 5886 5886 5886 5886 5886 5886 5886 5886 5886 5887 5887 5888 5889 5889 5890 5890 5892 5893
5848 5850 5853 5857 5860 5863 5866 5869 5872 5875 5877 5879 5881 5883 5884 5884 5885 5886 5886 5887 5886 5886 5886 5886 5886 5886 5886 5886 5885 5885 5885 5885 5885 5886 5886 5886 5887 5887 5888 5889 5889 5890 5891
5844 5846 5850 5853 5856 5860 5863 5866 5870 5872 5875 5877 5879 5881 5882 5883 5883 5884 5885 5886 5886 5886 5886 5886 5886 5886 5886 5885 5885 5885 5885 5885 5885 5885 5885 5886 5886 5886 5887 5887 5888 5889 5890
5841 5843 5846 5849 5852 5856 5859 5863 5867 5870 5873 5875 5877 5879 5880 5881 5882 5883 5884 5885 5885 5885 5885 5885 5885 5886 5885 5885 5885 5885 5885 5884 5884 5884 5885 5885 5885 5886 5886 5887 5888 5888 5889
5839 5840 5842 5845 5849 5852 5856 5860 5864 5867 5870 5872 5874 5876 5878 5880 5881 5882 5883 5884 5884 5885 5885 5885 5885 5885 5885 5885 5885 5885 5885 5885 5885 5884 5885 5885 5885 5886 5886 5886 5887 5887 5888
5836 5837 5839 5843 5846 5850 5854 5857 5861 5864 5867 5870 5872 5875 5877 5878 5880 5881 5882 5883 5884 5884 5885 5885 5885 5885 5885 5885 5886 5886 5886 5885 5885 5885 5885 5885 5885 5886 5886 5886 5886 5886 5886
5833 5835 5837 5840 5843 5847 5851 5854 5858 5862 5865 5868 5870 5873 5875 5877 5878 5880 5881 5882 5883 5884 5884 5884 5885 5885 5885 5885 5886 5886 5886 5887 5886 5886 5886 5886 5886 5886 5886 5885 5885 5885 5885
5830 5832 5834 5837 5840 5844 5848 5852 5855 5859 5863 5866 5868 5871 5873 5875 5877 5878 5879 5881 5882 5883 5883 5884 5884 5885 5885 5885 5885 5886 5886 5886 5886 5886 5886 5886 5886 5885 5885 5885 5885 5885 5884
5829 5830 5832 5835 5838 5841 5845 5849 5853 5857 5860 5863 5866 5869 5871 5873 5875 5876 5878 5879 5880 5881 5882 5883 5884 5884 5885 5885 5885 5885 5886 5886 5886 5886 5886 5885 5885 5885 5884 5884 5884 5884 5883
5828 5829 5831 5833 5836 5839 5843 5847 5851 5855 5858 5861 5864 5867 5869 5871 5873 5874 5876 5877 5879 5880 5881 5882 5883 5883 5884 5884 5884 5884 5884 5884 5884 5885 5885 5884 5884 5884 5883 5883 5882 5882 5882
5828 5829 5831 5833 5835 5838 5842 5845 5849 5852 5856 5859 5862 5864 5866 5868 5870 5872 5874 5875 5877 5878 5879 5880 5881 5882 5882 5883 5883 5883 5883 5883 5883 5883 5883 5882 5882 5882 5881 5881 5880 5880 5879